Location: Napier
(39.4830°S, 176.9170°E)
Time: 00:04:37
(UTC+13:00)

ISS - Pass Details

Date: 30 January 2019
Orbit: 403 x 411 km, 51.6° (Epoch: 22 February)

Event Time Altitude Azimuth Distance (km) Brightness Sun altitude
Exits shadow 03:52:22 11° 65° (ENE) 1,458 -0.9 -23.2°
Drops below altitude 10° 03:52:40 10° 69° (ENE) 1,489 -0.8 -23.1°
Sets 03:56:05 0° 107° (ESE) 2,359 0.9 -22.7°
